Regional Weather Roundup
Issued by NWS

Home | Current Version | Previous Version | Graphics & Text | Print | Product List | Glossary Off
Versions: 1 2 3 4 5 6 7 8 9 10 11 12 13 14 15 16 17 18 19 20 21 22 23 24 25 26 27 28 29 30 31 32 33 34 35 36 37 38 39 40 41 42 43 44 45 46 47 48 49 50

000
ASUS43 KTOP 191808
RWRKS

WEATHER ROUNDUP FOR KANSAS
NATIONAL WEATHER SERVICE GOODLAND KS
1200 PM CST MON FEB 19 2018

NOTE:  "FAIR" INDICATES FEW OR NO CLOUDS BELOW 12,000 FEET WITH NO
SIGNIFICANT WEATHER AND/OR OBSTRUCTIONS TO VISIBILITY.

KSZ001>006-013>018-027>032-041>047-191900-
NORTHWEST KANSAS

CITY           SKY/WX    TMP DP  RH WIND       PRES   REMARKS
GOODLAND       LGT SNOW  16  11  80 N12       29.78R WCI   3
6HR MIN TEMP:  13; 6HR MAX TEMP:  16; 6HR PCP: TRACE;

HAYS           CLOUDY    25  16  68 N14       29.86R WCI  13
HILL CITY      CLOUDY    21  14  74 N16       29.86S WCI   7
6HR MIN TEMP:  19; 6HR MAX TEMP:  21;

RUSSELL        CLOUDY    25  18  74 N13       29.85R WCI  14
6HR MIN TEMP:  23; 6HR MAX TEMP:  26;

$$

KSZ061>065-074>080-084>089-191900-
SOUTHWEST KANSAS

CITY           SKY/WX    TMP DP  RH WIND       PRES   REMARKS
DODGE CITY     CLOUDY    25  16  68 NW12      29.82S WCI  14
6HR MIN TEMP:  22; 6HR MAX TEMP:  26;

ELKHART        CLOUDY    29  22  75 NE7       29.77F
GARDEN CITY    CLOUDY    23  14  68 N13       29.81F WCI  11
6HR MIN TEMP:  20; 6HR MAX TEMP:  23;

GREAT BEND     CLOUDY    26  19  74 N17       29.85S WCI  13
LIBERAL        CLOUDY    29  20  69 N9        29.81F
PRATT          CLOUDY    29  20  69 N15       29.83S WCI  18
6HR MIN TEMP:  26; 6HR MAX TEMP:  30;

$$

KSZ066>073-081>083-090>101-191900-
SOUTHEAST KANSAS

CITY           SKY/WX    TMP DP  RH WIND       PRES   REMARKS
CHANUTE        LGT RAIN  49  46  90 NW10      29.76R FOG
6HR MIN TEMP:  49; 6HR MAX TEMP:  66; 6HR PCP:  0.06;

COFFEYVILLE    CLOUDY    64  63  96 VRB6      29.74F
6HR MIN TEMP:  62; 6HR MAX TEMP:  66; 6HR PCP:  0.81;

HUTCHINSON     CLOUDY    28  23  81 N15       29.82F WCI  16
6HR MIN TEMP:  27; 6HR MAX TEMP:  36;

MEDICINE LODGE   N/A     30  23  75 N16       29.82F WCI  19
NEWTON         CLOUDY    27  23  85 N17       29.82F WCI  14
PARSONS        LGT RAIN  63  63 100 SW7       29.75F FOG
6HR MIN TEMP:  61; 6HR MAX TEMP:  66; 6HR PCP:  0.26;

WICHITA INTL   CLOUDY    31  27  85 NW18      29.81S WCI  19
6HR MIN TEMP:  31; 6HR MAX TEMP:  63; 6HR PCP: TRACE;

WICHITA JABRA  CLOUDY    29  28  96 N14       29.81F WCI  18
6HR MIN TEMP:  29; 6HR MAX TEMP:  64;

WICHITA MCCONL CLOUDY    30  27  88 N15       29.80  WCI  19
WINFIELD       CLOUDY    36  36 100 N17       29.80S WCI  26
6HR MIN TEMP:  36; 6HR MAX TEMP:  66; 6HR PCP:  0.01;

$$

KSZ007>012-019>026-033>040-048>060-102>105-191900-
NORTHEAST KANSAS

CITY           SKY/WX    TMP DP  RH WIND       PRES   REMARKS
CONCORDIA      CLOUDY    23  18  81 NW17      29.86R WCI   9
6HR MIN TEMP:  21; 6HR MAX TEMP:  26; 6HR PCP: TRACE;

EMPORIA        CLOUDY    32  28  85 NW15      29.79R WCI  22
6HR MIN TEMP:  32; 6HR MAX TEMP:  63;

LAWRENCE       CLOUDY    37  33  85 NW10      29.79R WCI  30
6HR MIN TEMP:  37; 6HR MAX TEMP:  67; 6HR PCP: TRACE;

MANHATTAN      CLOUDY    29  24  82 NW8       29.84F
6HR MIN TEMP:  29; 6HR MAX TEMP:  39;

MARYSVILLE     CLOUDY    27  25  93 N13       29.83R WCI  16
OLATHE IND     CLOUDY    44  38  79 W13       29.76R
6HR MIN TEMP:  44; 6HR MAX TEMP:  67;

OLATHE EXE     CLOUDY    46  39  76 NW10      29.74R
6HR MIN TEMP:  46; 6HR MAX TEMP:  66;

SALINA         CLOUDY    28  20  71 NW17      29.86F WCI  16
6HR MIN TEMP:  26; 6HR MAX TEMP:  34;

TOPEKA BILLARD CLOUDY    33  30  88 NW12      29.81R WCI  24
6HR MIN TEMP:  33; 6HR MAX TEMP:  65;

TOPEKA FORBES  CLOUDY    33  30  88 NW16      29.80R FOG     WCI  23
6HR MIN TEMP:  33; 6HR MAX TEMP:  65; 6HR PCP: TRACE;

$$



USA.gov is the U.S. government's official web portal to all federal, state and local government web resources and services.